DateTimeUTC,F1_A11,F1_S11,BsB_S11,BsG_S11,BsR_S11,BbsB_S11,BbsG_S11,BbsR_S11,BaB_A11,BaG_A11,BaR_A11,Tu_S11,T_S11,Uu_S11,U_S11,P_S11,T1_A11
2021-09-07T18:00:00Z,00000200,21000000,,,,,,,0000.07,0000.00,-000.12,18.7,25.6,,00.0,0662.2,31.1
2021-09-07T18:01:00Z,00000200,21000000,,,,,,,0000.16,0000.05,0000.19,18.7,25.6,,00.0,0662.2,31.1
2021-09-07T18:02:00Z,00000200,21000000,,,,,,,-000.23,0000.01,-000.02,18.7,25.6,,00.0,0662.2,31.1
2021-09-07T18:03:00Z,00000200,61000000,,,,,,,0000.48,0000.33,0000.27,18.7,25.6,,00.0,0662.2,31.0
2021-09-07T18:04:00Z,00000200,41000000,0001.56,0001.01,0000.94,0000.49,0000.26,-000.02,0000.47,0000.43,0000.15,18.8,25.4,00.2,00.2,0663.1,31.0
2021-09-07T18:05:00Z,00000200,01000000,0002.11,0001.01,0001.15,0000.19,0000.18,0000.03,0000.38,0000.51,0000.06,18.9,25.4,00.4,00.3,0663.2,31.0
2021-09-07T18:06:00Z,00000200,01000000,0002.09,0001.10,0001.13,0000.88,0000.22,0000.21,0000.48,0000.20,0000.59,18.9,25.3,00.3,00.2,0663.2,31.0
2021-09-07T18:07:00Z,00000200,01000000,0002.22,0001.44,0001.18,0000.76,0000.14,0000.31,0000.78,0000.78,0000.35,18.8,25.3,00.6,00.4,0663.1,31.0
2021-09-07T18:08:00Z,00000200,01000000,0001.83,0001.25,0001.21,0000.07,0000.15,0000.03,0000.61,0000.02,0000.38,18.8,25.3,00.7,00.5,0663.1,31.0
2021-09-07T18:09:00Z,00000200,01000000,0002.12,0001.24,0001.10,0001.06,-000.12,-000.06,-000.11,0000.26,0000.41,18.8,25.3,00.6,00.4,0663.2,31.0
2021-09-07T18:10:00Z,00000200,01000000,0002.78,0001.23,0001.06,0000.44,0000.00,0000.09,0000.23,0000.69,0000.13,18.8,25.3,00.5,00.4,0663.2,31.0
2021-09-07T18:11:00Z,00000200,01000000,0001.25,0001.04,0000.64,0000.89,0000.15,-000.00,0000.58,0000.23,0000.12,18.8,25.3,00.8,00.5,0663.2,31.0
2021-09-07T18:12:00Z,00000200,01000000,0002.54,0001.17,0000.86,0000.78,0000.04,0000.08,-000.09,0000.04,0000.45,18.9,25.3,00.6,00.4,0663.2,31.1
2021-09-07T18:13:00Z,00000200,01000000,0001.79,0001.34,0000.80,0000.32,0000.10,0000.30,0000.68,0000.40,0000.30,19.0,25.4,00.5,00.3,0663.3,31.1
2021-09-07T18:14:00Z,00000200,01000000,0001.50,0001.62,0001.09,0000.18,0000.20,-000.04,0000.27,0000.22,0000.27,19.1,25.4,00.5,00.3,0663.3,31.1
2021-09-07T18:15:00Z,00000200,01000000,0001.39,0001.36,0000.83,0000.39,0000.18,0000.16,0000.38,0000.90,0000.20,19.2,25.5,00.5,00.3,0663.3,31.1
2021-09-07T18:16:00Z,00000200,01000000,0001.11,0001.39,0000.83,0000.18,0000.10,0000.35,0000.22,-000.40,-000.06,19.2,25.5,00.5,00.3,0663.3,31.1
2021-09-07T18:17:00Z,00000200,01000000,0002.37,0001.39,0001.12,0000.25,0000.24,0000.01,0000.56,0000.38,0000.31,19.2,25.5,00.5,00.3,0663.3,31.1
2021-09-07T18:18:00Z,00000200,01000000,0001.57,0001.62,0000.94,0001.44,0000.31,-000.17,-000.02,0000.39,0000.40,19.2,25.5,00.5,00.3,0663.3,31.1
2021-09-07T18:19:00Z,00000200,01000000,0002.45,0001.34,0001.06,0000.11,0000.31,0000.38,0000.69,0000.60,0000.27,19.2,25.5,00.6,00.4,0663.3,31.1
2021-09-07T18:20:00Z,00000200,01000000,0001.62,0001.33,0001.13,-000.40,0000.23,0000.25,0000.26,-000.15,0000.02,19.1,25.5,00.5,00.3,0663.3,31.1
2021-09-07T18:21:00Z,00000200,01000000,0002.03,0001.18,0000.66,0000.67,-000.08,-000.15,0000.18,0000.60,0000.44,19.1,25.5,00.6,00.4,0663.3,31.1
2021-09-07T18:22:00Z,00000200,01000000,0001.09,0001.53,0000.95,0000.54,-000.01,-000.01,0000.55,0000.57,0000.39,19.1,25.5,00.5,00.3,0663.3,31.1
2021-09-07T18:23:00Z,00000200,01000000,0002.25,0001.18,0001.47,0000.38,0000.20,-000.13,0000.66,0000.53,0000.40,19.0,25.4,00.7,00.5,0663.3,31.1
2021-09-07T18:24:00Z,00000200,01000000,0002.54,0001.06,0001.24,0000.36,0000.23,0000.30,0000.59,0000.51,0000.47,19.0,25.4,00.7,00.5,0663.3,31.1
2021-09-07T18:25:00Z,00000200,01000000,0001.29,0000.97,0001.16,0000.94,0000.34,0000.14,0000.68,0000.36,0000.26,19.0,25.4,00.9,00.6,0663.3,31.1
2021-09-07T18:26:00Z,00000200,01000000,0001.55,0001.06,0001.09,0000.62,0000.31,0000.39,0000.37,0000.37,0000.64,19.0,25.4,00.9,00.6,0663.3,31.1
2021-09-07T18:27:00Z,00000200,01000000,0001.56,0001.42,0000.98,0000.63,0000.42,0000.22,0000.53,0000.82,0000.25,19.1,25.4,01.1,00.8,0663.3,31.1
2021-09-07T18:28:00Z,00000200,01000000,0002.75,0001.21,0000.84,-000.19,0000.39,-000.04,0000.45,0000.07,0000.21,19.1,25.4,01.1,00.7,0663.3,31.1
2021-09-07T18:29:00Z,00000200,01000000,0002.30,0001.57,0001.07,0000.62,0000.13,0000.09,0000.17,0000.26,0000.40,19.1,25.4,01.1,00.8,0663.3,31.1
2021-09-07T18:30:00Z,00000200,01000000,0002.43,0001.63,0001.08,0000.81,0000.32,0000.39,0000.30,0000.29,0000.09,19.1,25.4,01.2,00.8,0663.4,31.1
2021-09-07T18:31:00Z,00000200,01000000,0001.91,0001.12,0001.01,0000.33,0000.04,0000.28,0000.36,0000.54,0000.32,19.1,25.4,01.1,00.7,0663.3,31.1
2021-09-07T18:32:00Z,00000200,01000000,0001.57,0001.18,0000.66,0000.56,0000.13,0000.10,0000.41,0000.37,0000.23,19.1,25.4,01.1,00.8,0663.3,31.1
2021-09-07T18:33:00Z,00000200,01000000,0001.28,0001.39,0000.89,0000.81,-000.06,0000.12,0000.56,0000.04,0000.04,19.0,25.4,01.1,00.8,0663.3,31.1
2021-09-07T18:34:00Z,00000200,01000000,0001.99,0001.59,0001.20,0000.98,0000.36,0000.03,0000.26,0000.46,0000.26,19.0,25.4,01.1,00.7,0663.3,31.1
2021-09-07T18:35:00Z,00000200,01000000,0002.63,0001.66,0000.75,0000.03,0000.22,0000.32,0000.30,0000.43,0000.19,19.0,25.4,01.2,00.8,0663.3,31.1
2021-09-07T18:36:00Z,00000200,01000000,0001.86,0001.22,0001.14,0000.38,0000.36,0000.28,-000.04,-000.19,0000.36,19.0,25.4,01.0,00.7,0663.3,31.1
2021-09-07T18:37:00Z,00000200,01000000,0002.33,0001.53,0000.70,0000.76,0000.30,0000.31,0000.78,0000.67,0000.51,18.9,25.3,01.0,00.7,0663.3,31.0
2021-09-07T18:38:00Z,00000200,01000000,0001.61,0001.57,0001.23,0000.45,0000.27,0000.43,0000.00,0000.12,-000.08,18.9,25.3,01.1,00.7,0663.3,31.0
2021-09-07T18:39:00Z,00000200,01000000,0001.97,0001.47,0001.62,0000.15,0000.18,-000.05,0000.29,0000.23,0000.02,18.9,25.3,01.0,00.7,0663.3,31.0
2021-09-07T18:40:00Z,00000200,01000000,0002.31,0001.16,0001.06,0000.68,0000.12,0000.49,0000.55,0000.36,0000.46,18.8,25.3,01.0,00.6,0663.3,31.0
2021-09-07T18:41:00Z,00000200,01000000,0001.34,0001.57,0001.19,0000.36,0000.12,0000.24,0000.50,0000.60,0000.34,18.9,25.3,00.9,00.6,0663.3,31.0
2021-09-07T18:42:00Z,00000200,01000000,0002.28,0001.64,0001.32,0000.49,-000.09,0000.04,0000.35,0000.60,0000.63,18.9,25.3,01.0,00.7,0663.4,31.0
2021-09-07T18:43:00Z,00000200,01000000,0002.37,0001.63,0001.05,0000.01,0000.40,0000.27,0000.18,0000.09,-000.05,19.0,25.3,01.0,00.6,0663.4,31.1
2021-09-07T18:44:00Z,00000200,01000000,0002.37,0001.64,0001.06,0001.01,0000.23,0000.18,0000.24,0000.44,0000.41,19.1,25.4,01.0,00.7,0663.4,31.1
2021-09-07T18:45:00Z,00000200,01000000,0001.89,0001.21,0000.96,0000.11,-000.07,0000.00,0000.43,-000.02,0000.13,19.1,25.4,00.9,00.6,0663.4,31.1
2021-09-07T18:46:00Z,00000200,01000000,0001.89,0001.05,0001.09,0000.39,0000.15,0000.09,0000.16,0000.68,0000.08,19.1,25.4,00.9,00.6,0663.4,31.1
2021-09-07T18:47:00Z,00000200,01000000,0002.12,0001.47,0001.14,0000.28,0000.04,0000.26,0000.33,-000.30,0000.35,19.2,25.4,00.8,00.5,0663.4,31.1
2021-09-07T18:48:00Z,00000200,01000000,0002.49,0001.27,0001.08,0000.93,0000.17,0000.23,0000.24,0000.25,0000.03,19.1,25.4,00.7,00.5,0663.4,31.1
2021-09-07T18:49:00Z,00000200,01000000,0001.75,0001.42,0000.73,0000.44,0000.23,-000.22,0000.13,0000.15,0000.50,19.1,25.4,00.7,00.5,0663.4,31.1
2021-09-07T18:50:00Z,00000200,01000000,0001.41,0001.52,0000.89,0000.69,0000.16,0000.18,0000.22,0000.41,-000.08,19.1,25.4,00.6,00.4,0663.4,31.0
2021-09-07T18:51:00Z,00000200,01000000,0001.70,0001.45,0000.83,0001.04,-000.02,0000.14,0000.08,0000.14,0000.18,19.0,25.4,00.6,00.4,0663.4,31.0
2021-09-07T18:52:00Z,00000200,01000000,0002.83,0001.44,0000.82,0001.12,0000.28,0000.12,0000.05,0000.06,-000.08,19.0,25.4,00.5,00.4,0663.4,31.0
2021-09-07T18:53:00Z,00000200,01000000,0001.52,0000.89,0001.09,0000.06,0000.27,0000.39,0000.60,0000.01,0000.43,19.0,25.4,00.4,00.3,0663.5,31.0
2021-09-07T18:54:00Z,00000200,01000000,0001.76,0001.30,0000.85,-000.22,-000.01,0000.07,-000.04,0000.59,0000.22,19.0,25.4,00.3,00.2,0663.5,31.0
2021-09-07T18:55:00Z,00000200,01000000,0002.42,0001.26,0001.05,0001.16,0000.26,0000.40,0000.29,0000.49,0000.21,19.0,25.3,00.4,00.3,0663.5,31.0
2021-09-07T18:56:00Z,00000200,01000000,0002.04,0001.33,0001.40,0000.25,0000.20,-000.04,0000.42,-000.09,0000.15,19.0,25.3,00.3,00.2,0663.5,31.1
2021-09-07T18:57:00Z,00000200,41000000,,,,,,,0000.26,0000.54,0000.18,19.0,25.4,,00.0,0663.5,31.1
2021-09-07T18:58:00Z,00000200,61000000,,,,,,,-000.31,-000.80,-000.20,18.8,25.6,00.3,00.2,0662.5,31.1
2021-09-07T18:59:00Z,00000200,21000000,,,,,,,-000.06,0000.09,-000.12,18.8,25.7,00.1,00.1,0662.5,31.1
